World > North America > United States > New York > Perth  

Perth, NY Hourly Weather Updates

Feedback E-mail the Weather

Quick Clicks

Perth, NY Weather Maps

°F °C°F °C
Perth Weather Map
UTC Time: 6/19/2024, 05:06
Your Time:

Perth, NY Regional Weather

Expires:202406190500;;271710
ASUS41 KALY 190410
RWRALY

NEW YORK STATE HOURLY WEATHER ROUNDUP
NATIONAL WEATHER SERVICE ALBANY NY
1200 AM EDT WED JUN 19 2024

NOTE: "FAIR" INDICATES FEW OR NO CLOUDS BELOW 12,000 FEET WITH NO
SIGNIFICANT WEATHER AND/OR NO OBSTRUCTIONS TO VISIBILITY.


NYZ032-033-038>043-046>054-057>066-NYZ062>081-082-084-190500-
EAST

  
CITY           SKY/WX    TMP DP  RH WIND       PRES   REMARKS
ALBANY         PTCLDY    82  71  69 S10G20    30.22R                  
GLENS FALLS    CLEAR     73  73 100 CALM      30.21R                  
POUGHKEEPSIE   PTCLDY    76  63  64 SE6       30.24S                  
NEWBURGH       CLEAR     75  66  73 S7        30.26R                  
MONTGOMERY     CLEAR     73  67  81 CALM      30.25S                  
WHITE PLAINS   CLEAR     69  61  75 SE5       30.29R                  
ISLIP          PTCLDY    71  66  84 SW9       30.30S                  
NEW YORK CITY  PTCLDY    75  59  57 S7        30.28R                  
CENTRAL PARK   PTCLDY    77  61  57 CALM      30.31R                  
$$


SKY/WX - Weather  TMP - Temperature  DP - Dew Point  RH - Humidity
WIND - Wind Direction/Speed PRES - Barometric Pressure VSB - Visibility
WCI - Wind Chill Index E13G22 Wind - East Wind 13 mph/Gusts of 22 mph

Trending Headlines

Trending Entertainment Headlines

Perth Radar Loop

Use the map search tool if you want to place a location marker on the radar map...

Perth Quick Facts

National Two Day Weather Forecast


E-mail the Perth Weather Forecast

Voice your opinion or tell us about page issues...